Weather History for KCSQ - June, 2013

Change the Weather History Date:

Saturday, June 15, 2013

  Actual Average Record
Temperature  
Mean Temperature 72 °F -  
Max Temperature 80 °F 81 °F 95 °F (1987)
Min Temperature 64 °F 58 °F 43 °F (1969)
Cooling Degree Days 7    
Growing Degree Days 22 (Base 50)    
Moisture  
Dew Point 66 °F    
Average Humidity 88    
Maximum Humidity 100    
Minimum Humidity 69    
Precipitation  
Precipitation 0.09 in - - ()
Sea Level Pressure  
Sea Level Pressure 29.94 in    
Wind  
Wind Speed 11 mph (South)    
Max Wind Speed 28 mph    
Max Gust Speed 36 mph    
Visibility 10 miles    
Events Rain    
Averages and records for this station are not official NWS values.
T = Trace of Precipitation, MM = Missing Value Source: NWS Daily Summary

Daily Weather History Graph

Daily Weather History Graph

Search for Another Location

Airport or City:

Trip Planner

Search our weather history database for the weather conditions in past years. The results will help you decide how hot, cold, wet, or windy it might be!

Date:

Astronomy

Jun. 15, 2013 Rise Set
Actual Time 5:44 AM CDT 8:51 PM CDT
Civil Twilight 5:11 AM CDT 9:25 PM CDT
Nautical Twilight 4:28 AM CDT 10:08 PM CDT
Astronomical Twilight 3:37 AM CDT 10:59 PM CDT
Moon 12:23 PM CDT (6/15) 12:24 AM CDT (6/15)
Length of Visible Light 16h 14m
Length of Day
15h 06m
Waxing Crescent, 40% of the Moon is Illuminated
Jun 15
Waxing Crescent
Jun 16
First Quarter
Jun 23
Full
Jun 29
Last Quarter
Jul 8
New

Hourly Weather History & Observations

Time (CDT) Temp. Heat Index Dew Point Humidity Pressure Visibility Wind Dir Wind Speed Gust Speed Precip Events Conditions
12:15 AM 66.2 °F - 64.4 °F 94% 30.01 in 6.0 mi SSE 5.8 mph - N/A Rain Light Rain
12:35 AM 66.2 °F - 64.4 °F 94% 30.01 in 6.0 mi SE 6.9 mph - N/A Rain Light Rain
12:55 AM 66.2 °F - 64.4 °F 94% 29.98 in 9.0 mi SE 17.3 mph - 0.09 in   Light Drizzle
1:15 AM 66.2 °F - 64.4 °F 94% 29.97 in 10.0 mi SE 17.3 mph 31.1 mph N/A   Mostly Cloudy
1:35 AM 66.2 °F - 64.4 °F 94% 30.01 in 10.0 mi Variable 4.6 mph 17.3 mph N/A   Overcast
1:55 AM 66.2 °F - 64.4 °F 94% 29.98 in 10.0 mi East 9.2 mph - N/A   Mostly Cloudy
2:15 AM 66.2 °F - 62.6 °F 88% 29.96 in 10.0 mi SE 9.2 mph 17.3 mph N/A   Mostly Cloudy
2:35 AM 66.2 °F - 64.4 °F 94% 29.96 in 10.0 mi SE 9.2 mph - N/A   Mostly Cloudy
2:55 AM 66.2 °F - 64.4 °F 94% 29.94 in 10.0 mi SE 6.9 mph - N/A   Overcast
3:15 AM 66.2 °F - 62.6 °F 88% 29.94 in 10.0 mi SSE 8.1 mph - N/A   Mostly Cloudy
3:35 AM 64.4 °F - 62.6 °F 94% 29.93 in 10.0 mi SSE 9.2 mph - N/A   Scattered Clouds
3:55 AM 66.2 °F - 62.6 °F 88% 29.92 in 10.0 mi SSE 8.1 mph - N/A   Partly Cloudy
4:15 AM 64.4 °F - 62.6 °F 94% 29.90 in 10.0 mi SSE 9.2 mph - N/A   Partly Cloudy
4:35 AM 64.4 °F - 62.6 °F 94% 29.91 in 10.0 mi SSE 8.1 mph - N/A   Scattered Clouds
4:55 AM 64.4 °F - 62.6 °F 94% 29.90 in 10.0 mi South 11.5 mph - N/A   Partly Cloudy
5:15 AM 64.4 °F - 62.6 °F 94% 29.90 in 10.0 mi South 10.4 mph - N/A   Clear
5:35 AM 64.4 °F - 62.6 °F 94% 29.91 in 10.0 mi SSE 9.2 mph - N/A   Clear
5:55 AM 64.4 °F - 62.6 °F 94% 29.91 in 10.0 mi SSE 11.5 mph - N/A   Clear
6:15 AM 64.4 °F - 62.6 °F 94% 29.91 in 10.0 mi SSE 11.5 mph - N/A   Clear
6:35 AM 64.4 °F - 62.6 °F 94% 29.91 in 10.0 mi SSE 12.7 mph - N/A   Clear
6:55 AM 64.4 °F - 62.6 °F 94% 29.91 in 10.0 mi South 13.8 mph 19.6 mph N/A   Clear
7:15 AM 66.2 °F - 64.4 °F 94% 29.91 in 10.0 mi South 12.7 mph 18.4 mph N/A   Clear
7:35 AM 68.0 °F - 64.4 °F 88% 29.91 in 10.0 mi South 12.7 mph - N/A   Clear
7:55 AM 68.0 °F - 64.4 °F 88% 29.92 in 10.0 mi South 12.7 mph 18.4 mph N/A   Clear
8:15 AM 69.8 °F - 66.2 °F 88% 29.93 in 10.0 mi South 15.0 mph - N/A   Clear
8:35 AM 69.8 °F - 66.2 °F 88% 29.92 in 10.0 mi South 21.9 mph 27.6 mph N/A   Scattered Clouds
8:55 AM 69.8 °F - 66.2 °F 88% 29.93 in 9.0 mi South 20.7 mph 26.5 mph N/A   Scattered Clouds
9:15 AM 69.8 °F - 66.2 °F 88% 29.95 in 10.0 mi WSW 5.8 mph 20.7 mph N/A   Scattered Clouds
9:35 AM 73.4 °F - 68.0 °F 83% 29.95 in 10.0 mi SSW 13.8 mph - N/A   Partly Cloudy
9:55 AM 75.2 °F - 69.8 °F 83% 29.95 in 10.0 mi South 13.8 mph - N/A   Clear
12:15 PM 80.6 °F 85.4 °F 73.4 °F 79% 29.95 in 10.0 mi SSW 16.1 mph 23.0 mph N/A   Clear
12:35 PM 78.8 °F - 71.6 °F 78% 29.95 in 10.0 mi SSW 17.3 mph - N/A   Clear
1:15 PM 78.8 °F - 71.6 °F 78% 29.95 in 10.0 mi SSW 17.3 mph - N/A   Clear
1:35 PM 78.8 °F - 71.6 °F 78% 29.95 in 10.0 mi SSW 15.0 mph - N/A   Clear
1:55 PM 78.8 °F - 73.4 °F 83% 29.95 in 10.0 mi SSW 13.8 mph - N/A   Clear
2:15 PM 78.8 °F - 71.6 °F 78% 29.95 in 10.0 mi SSW 12.7 mph - N/A   Clear
2:35 PM 78.8 °F - 71.6 °F 78% 29.93 in 10.0 mi Calm Calm - N/A   Clear
2:55 PM 78.8 °F - 69.8 °F 74% 29.95 in 10.0 mi SW 8.1 mph - N/A   Partly Cloudy
3:15 PM 78.8 °F - 71.6 °F 78% 29.94 in 10.0 mi WSW 6.9 mph - N/A   Partly Cloudy
3:35 PM 78.8 °F - 69.8 °F 74% 29.96 in 10.0 mi WSW 15.0 mph 21.9 mph N/A   Scattered Clouds
3:55 PM 75.2 °F - 66.2 °F 73% 29.96 in 9.0 mi West 27.6 mph 35.7 mph N/A   Light Drizzle
4:15 PM 71.6 °F - 66.2 °F 83% 29.97 in 7.0 mi West 11.5 mph 20.7 mph N/A Rain Light Rain
4:35 PM 71.6 °F - 68.0 °F 88% 29.94 in 9.0 mi Calm Calm - N/A   Light Drizzle
4:55 PM 73.4 °F - 66.2 °F 78% 29.93 in 10.0 mi WNW 3.5 mph - N/A   Partly Cloudy
5:15 PM 73.4 °F - 66.2 °F 78% 29.92 in 10.0 mi SSE 4.6 mph - N/A   Mostly Cloudy
5:35 PM 73.4 °F - 68.0 °F 83% 29.92 in 10.0 mi SW 4.6 mph - N/A   Scattered Clouds
5:55 PM 71.6 °F - 68.0 °F 88% 29.92 in 7.0 mi West 5.8 mph - N/A   Light Drizzle
6:15 PM 71.6 °F - 68.0 °F 88% 29.91 in 9.0 mi WSW 6.9 mph - N/A   Light Drizzle
6:35 PM 73.4 °F - 62.6 °F 69% 29.91 in 10.0 mi SW 10.4 mph - N/A   Mostly Cloudy
6:55 PM 71.6 °F - 64.4 °F 78% 29.92 in 10.0 mi SSW 10.4 mph - N/A   Mostly Cloudy
7:15 PM 71.6 °F - 64.4 °F 78% 29.94 in 10.0 mi South 12.7 mph - N/A   Overcast
7:35 PM 69.8 °F - 66.2 °F 88% 29.96 in 10.0 mi South 17.3 mph 26.5 mph N/A   Overcast
7:55 PM 69.8 °F - 68.0 °F 94% 29.96 in 10.0 mi SSE 16.1 mph 25.3 mph N/A   Overcast
8:15 PM 69.8 °F - 66.2 °F 88% 29.96 in 10.0 mi SSE 16.1 mph - N/A   Overcast
8:35 PM 68.0 °F - 66.2 °F 94% 29.96 in 10.0 mi South 13.8 mph 20.7 mph N/A   Overcast
8:55 PM 68.0 °F - 66.2 °F 94% 29.96 in 10.0 mi South 11.5 mph 18.4 mph N/A   Overcast
9:15 PM 68.0 °F - 66.2 °F 94% 29.96 in 10.0 mi SSE 13.8 mph - N/A   Overcast
9:35 PM 66.2 °F - 66.2 °F 100% 29.95 in 10.0 mi SSE 12.7 mph - N/A   Overcast
9:55 PM 66.2 °F - 64.4 °F 94% 29.95 in 10.0 mi SSE 11.5 mph - N/A   Scattered Clouds
10:15 PM 66.2 °F - 64.4 °F 94% 29.96 in 10.0 mi South 9.2 mph - N/A   Clear
10:35 PM 66.2 °F - 64.4 °F 94% 29.97 in 10.0 mi South 6.9 mph - N/A   Mostly Cloudy
10:55 PM 66.2 °F - 66.2 °F 100% 29.98 in 10.0 mi South 10.4 mph - N/A   Overcast
11:15 PM 66.2 °F - 66.2 °F 100% 29.97 in 10.0 mi South 10.4 mph - N/A   Overcast
11:35 PM 66.2 °F - 66.2 °F 100% 29.97 in 10.0 mi South 9.2 mph - N/A   Overcast
11:55 PM 66.2 °F - 66.2 °F 100% 29.98 in 10.0 mi South 9.2 mph - N/A   Overcast